Regional Weather Roundup
Issued by NWS Goodland, KS

Home | Current Version | Previous Version | Graphics & Text | Print | Product List | Glossary On
Versions: 1 2 3 4 5 6 7 8 9 10 11 12 13 14 15 16 17 18 19 20 21 22 23 24 25 26 27 28 29 30 31 32 33 34 35 36 37 38 39 40 41 42 43 44 45 46 47 48 49 50
000
ASUS43 KGLD 241859
RWRGLD

GOODLAND FORECAST AREA HOURLY WEATHER ROUNDUP
NATIONAL WEATHER SERVICE GOODLAND KS
100 PM MDT SUN MAY 24 2015

...OFFICIAL OBSERVATIONS...

CITY           SKY/WX    TMP DP  RH WIND       PRES   REMARKS
GOODLAND KS    MOSUNNY   66  53  63 SE6       29.85F
HILL CITY KS   CLOUDY    68  60  75 SW6       29.85F
IMPERIAL NEB   MOSUNNY   68  50  52 VRB3      29.84F
MCCOOK NEB     CLOUDY    69  56  62 VRB5      29.83F
AKRON CO       PTSUNNY   64  48  56 SE9       29.86F
BURLINGTON CO  MOSUNNY   65  53  65 E9        29.86F
LIMON CO       MOSUNNY   60  47  61 SE15G24   29.86F
$$

...UNOFFICIAL OBSERVATIONS...

CITY           SKY/WX    TMP DP  RH WIND       PRES   REMARKS
COLBY KS       PTSUNNY   66  59  77 SE7       29.86F
GOVE KS          N/A     66  32  28 MISG        N/A
LENORA KS        N/A     65  32  29 MISG        N/A
NORTON KS      CLOUDY    63  55  77 SE5       29.85F
SHARON SPRINGS   N/A     68  58  69 MISG        N/A
KIT CARSON CO    N/A     66  54  65 MISG        N/A
$$



USA.gov is the U.S. government's official web portal to all federal, state and local government web resources and services.